Location: Batesville
(34.7480°N, 83.6110°W)
Time: 18:48:13
(UTC-05:00)

OTV 5 (USA 277) - Visible Passes

Search period start: 22 January 2018 00:00
Search period end: 01 February 2018 00:00
Orbit: 404 x 417 km, 43.0° (Epoch: 07 September)

Date Brightness Start Highest point End Pass type
(mag) Time Alt. Az. Time Alt. Az. Time Alt. Az.
22 Jan ? 18:39:31 10° SW 18:42:41 39° SE 18:44:58 16° E visible
22 Jan ? 20:16:53 10° W 20:17:44 16° W 20:17:44 16° W visible
23 Jan ? 19:25:35 10° W 19:28:53 49° NNW 19:29:15 46° N visible
24 Jan ? 18:34:25 10° WSW 18:37:46 76° NNW 18:40:43 13° ENE visible
24 Jan ? 20:12:41 10° WNW 20:13:29 14° NW 20:13:29 14° NW visible
25 Jan ? 19:21:17 10° WNW 19:24:14 27° NNW 19:24:54 25° N visible
26 Jan ? 18:29:55 10° W 18:33:03 35° NNW 18:36:11 10° NE visible
26 Jan ? 20:08:26 10° NW 20:09:03 13° NW 20:09:03 13° NW visible
27 Jan ? 19:17:06 10° WNW 19:19:43 20° N 19:20:26 19° NNE visible
28 Jan ? 18:25:42 10° WNW 18:28:28 23° N 18:31:14 10° NE visible
28 Jan ? 20:03:51 10° NW 20:04:34 14° NW 20:04:34 14° NW visible
29 Jan ? 19:12:42 10° NW 19:15:15 20° N 19:15:58 18° NNE visible
30 Jan ? 19:58:59 10° NW 20:00:09 18° NNW 20:00:09 18° NNW visible
31 Jan ? 19:07:57 10° NW 19:10:46 24° NNE 19:11:38 21° NE visible
